Miscellaneous Local Product
Issued by NWS North Platte, NE

Home | Current Version | Previous Version | Text Only | Print | Product List | Glossary On
Versions: 1 2 3 4 5 6 7 8 9 10 11 12 13 14 15 16 17 18 19 20 21 22 23 24 25 26 27 28 29 30 31 32 33 34 35 36 37 38 39 40 41 42 43 44 45 46 47 48 49 50
000
AXUS43 KLBF 251410
MISLBF


WESTERN AND NORTH CENTRAL NEBRASKA HOURLY WEATHER ROUNDUP
NATIONAL WEATHER SERVICE NORTH PLATTE NE
900 AM CDT SAT APR 25 2015

***STATIONS NOT REPORTING VARIABLES SUCH AS SKY/WEATHER OR
PRESSURE ARE PROVIDED BY THE NEBRASKA DEPARTMENT OF
ROADS...RAWS...AND APRS NETWORKS...AND ARE NOT UNDER
NATIONAL WEATHER SERVICE QUALITY CONTROL***

...OBSERVATIONS IN AND NEAR THE EASTERN PANHANDLE OF NEBRASKA...

CITY           SKY/WX    TMP DP  RH WIND       PRES   REMARKS
PINE RIDGE     CLOUDY    43  41  93 W6        29.70R
CHADRON        SUNNY     44  41  89 CALM      29.69F
ALLIANCE       SUNNY     45  42  89 W5        29.69S
SIDNEY         SUNNY     49  42  77 NW9       29.72R
$$

...OBSERVATIONS IN NORTH CENTRAL NEBRASKA...

CITY           SKY/WX    TMP DP  RH WIND       PRES   REMARKS
VALENTINE      CLOUDY    48  47  96 NE10      29.68R FOG
THEDFORD       CLOUDY    52  49  90 NE6       29.68R
AINSWORTH      PTSUNNY   51  50  95 E8        29.67S
O`NEILL        CLOUDY    51  50  98 NE9       29.67R FOG
ORD            CLOUDY    53  50  89 N14       29.62R FOG
BROKEN BOW     CLOUDY    54  49  83 N16       29.64R
BROWNLEE         N/A     54  52  94 N10         N/A
SARGENT          N/A     51  49  93 CALM        N/A
EWING            N/A     47  46  96 NE6         N/A
$$

...OBSERVATIONS IN SOUTHWEST NEBRASKA AND FAR NORTHEAST COLORADO...

CITY           SKY/WX    TMP DP  RH WIND       PRES   REMARKS
WRAY           FAIR      52  44  74 NW7       29.70R
HOLYOKE        FAIR      54  45  71 NW8       29.70R
IMPERIAL       MOSUNNY   52  44  74 N13       29.68R
OGALLALA       MOSUNNY   51  46  82 NW15      29.68R
MCCOOK         MOSUNNY   55  49  80 NW5       29.64R
LEXINGTON      CLOUDY    56  52  87 N8        29.64R
$$

...NORTH PLATTE AREA...

CITY           SKY/WX    TMP DP  RH WIND       PRES   REMARKS
$$

...SOME WEATHER OBSERVATIONS FROM AROUND THE REGION...

CITY           SKY/WX    TMP DP  RH WIND       PRES   REMARKS
DENVER         MOSUNNY   53  28  38 SW13      29.74S
LARAMIE        MOSUNNY   44  31  60 SW14      29.78S
CHEYENNE       SUNNY     46  32  58 W6        29.75S
SCOTTSBLUFF    SUNNY     49  32  52 NW6       29.71R
RAPID CITY     FOG       43  42  97 W7        29.70S VSB 1/4
PIERRE         FOG       45  44  97 NE13      29.71R VSB 1
WINNER         FOG       51  49  92 E12       29.69R VSB 1/2
SIOUX FALLS    CLOUDY    46  41  82 E17       29.72R
OMAHA          LGT RAIN  49  46  90 NE13      29.57R FOG
GRAND ISLAND   CLOUDY    51  50  96 N14       29.60R
KANSAS CITY    CLOUDY    58  56  93 E6        29.42F
WICHITA        MOSUNNY   61  52  72 W13       29.57R
HAYS           MOSUNNY   57  46  67 NW16G23   29.60R
LIBERAL        SUNNY     57  43  58 W16       29.69S
GOODLAND       SUNNY     52  42  69 NW13      29.70R
$$



USA.gov is the U.S. government's official web portal to all federal, state and local government web resources and services.